Penn Yan, NY

6:23 AM EDT on September 24, 2017 (GMT -0400)
Penn Yan

Weather History for KPEO - February, 2014

Change the Weather History Date:

Saturday, February 8, 2014

  Actual Average (KITH) Record (KITH)
Temperature  
Mean Temperature 5 °F -  
Max Temperature 19 °F 28 °F 86 °F (2005)
Min Temperature -9 °F 9 °F -20 °F (1934)
Degree Days  
Heating Degree Days 60    
Moisture  
Dew Point -2 °F    
Average Humidity 65    
Maximum Humidity 88    
Minimum Humidity 48    
Precipitation  
Precipitation 0.00 in - - ()
Sea Level Pressure  
Sea Level Pressure 30.29 in    
Wind  
Wind Speed 4 mph (SSW)    
Max Wind Speed 7 mph    
Max Gust Speed -    
Visibility 10 miles    
Events      
Averages and records for this station are not official NWS values.
T = Trace of Precipitation, MM = Missing Value Source: NWS Daily Summary

Daily Weather History Graph

Daily Weather History Graph

Search for Another Location

Airport or City:

Trip Planner

Search our weather history database for the weather conditions in past years. The results will help you decide how hot, cold, wet, or windy it might be!

Date:

Astronomy

Feb. 08, 2014 Rise Set
Actual Time 7:14 AM EST 5:30 PM EST
Civil Twilight 6:44 AM EST 6:00 PM EST
Nautical Twilight 6:11 AM EST 6:33 PM EST
Astronomical Twilight 5:38 AM EST 7:06 PM EST
Moon 12:21 PM EST (2/8) 2:26 AM EST (2/8)
Length of Visible Light 11h 15m
Length of Day
10h 16m
Waxing Gibbous, 68% of the Moon is Illuminated
Feb 8
Waxing Gibbous
Feb 14
Full
Feb 22
Last Quarter
Mar 1
New
Mar 8
First Quarter

Hourly Weather History & Observations

Time (EST) Temp. Windchill Dew Point Humidity Pressure Visibility Wind Dir Wind Speed Gust Speed Precip Events Conditions
12:53 AM 9.0 °F -0.9 °F -7.1 °F 48% 30.30 in 10.0 mi SSW 5.8 mph - N/A   Clear
1:53 AM 7.0 °F -4.5 °F -6.0 °F 55% 30.30 in 10.0 mi SSW 6.9 mph - N/A   Clear
2:53 AM 8.1 °F -2.0 °F -6.0 °F 53% 30.32 in 10.0 mi SW 5.8 mph - N/A   Clear
3:53 AM -0.9 °F - -9.0 °F 69% 30.33 in 10.0 mi Calm Calm - N/A   Clear
4:53 AM -9.0 °F - -15.0 °F 75% 30.34 in 10.0 mi Calm Calm - N/A   Clear
5:53 AM -2.9 °F -13.3 °F -9.0 °F 75% 30.35 in 10.0 mi South 4.6 mph - N/A   Clear
6:53 AM -0.0 °F -13.0 °F -6.0 °F 76% 30.35 in 10.0 mi SSW 6.9 mph - N/A   Clear
7:53 AM -0.0 °F -13.0 °F -6.0 °F 76% 30.35 in 10.0 mi SW 6.9 mph - N/A   Clear
8:53 AM -0.0 °F -11.6 °F -6.0 °F 76% 30.35 in 10.0 mi SW 5.8 mph - N/A   Clear
9:53 AM 3.9 °F -6.9 °F -4.0 °F 70% 30.35 in 10.0 mi SSW 5.8 mph - N/A   Clear
10:53 AM 10.0 °F 3.6 °F -2.0 °F 58% 30.34 in 10.0 mi SSW 3.5 mph - N/A   Partly Cloudy
11:53 AM 12.9 °F 5.2 °F -0.0 °F 56% 30.29 in 10.0 mi SW 4.6 mph - N/A   Partly Cloudy
12:53 PM 16.0 °F 10.4 °F 1.0 °F 52% 30.27 in 10.0 mi SW 3.5 mph - N/A   Mostly Cloudy
1:53 PM 18.0 °F 12.7 °F 1.9 °F 50% 30.25 in 10.0 mi South 3.5 mph - N/A   Scattered Clouds
2:53 PM 19.0 °F 12.3 °F 3.0 °F 50% 30.23 in 10.0 mi ENE 4.6 mph - N/A   Mostly Cloudy
3:53 PM 18.0 °F 11.1 °F 3.9 °F 54% 30.24 in 10.0 mi NNE 4.6 mph - N/A   Overcast
4:53 PM 17.1 °F 10.0 °F 3.9 °F 56% 30.25 in 10.0 mi NNE 4.6 mph - N/A   Overcast
5:53 PM 16.0 °F - 3.9 °F 59% 30.24 in 10.0 mi Calm Calm - N/A   Overcast
6:53 PM 15.1 °F - 5.0 °F 64% 30.23 in 8.0 mi Calm Calm - 0.00 in   Overcast
7:53 PM 14.0 °F - 6.1 °F 71% 30.23 in 10.0 mi Calm Calm - N/A   Overcast
8:53 PM 3.9 °F - -2.0 °F 76% 30.24 in 10.0 mi Calm Calm - N/A   Partly Cloudy
9:53 PM 1.9 °F - -0.9 °F 88% 30.24 in 10.0 mi Calm Calm - N/A   Partly Cloudy
10:53 PM 3.9 °F -3.4 °F -0.9 °F 80% 30.24 in 9.0 mi WSW 3.5 mph - N/A   Mostly Cloudy
11:53 PM 7.0 °F - 3.0 °F 84% 30.22 in 8.0 mi Calm Calm - N/A   Overcast